Wind_Speed
24 22 24 28 31 30 30 32 35 33 31 29 32 31 31 34 37 38 37 36 36 36 35 33 32 31 30 30 30 29 29 27
22 22 21 26 28 28 29 32 35 35 33 33 32 30 31 33 35 37 37 37 37 36 40 37 37 36 35 34 34 33 33 31
22 20 26 26 28 26 30 30 33 33 32 31 34 33 31 30 28 31 35 37 37 39 41 42 40 40 39 38 37 36 35 33
26 21 22 28 28 30 30 27 31 34 34 37 35 34 31 30 29 27 29 34 38 41 43 43 41 42 41 41 39 37 36 35
25 23 23 26 28 30 31 29 28 36 38 37 36 35 34 35 38 35 34 34 36 39 39 38 48 47 42 42 40 38 37 35
22 22 23 26 29 31 33 34 34 35 39 41 41 41 40 41 40 46 48 36 38 40 41 46 41 43 47 42 38 38 36 37
17 20 20 21 24 30 35 36 37 39 39 41 43 42 40 39 40 44 48 53 57 58 62 63 59 49 44 48 42 36 32 32
19 19 20 19 19 21 21 26 31 34 32 35 37 41 45 43 42 46 51 47 42 36 28 33 48 43 33 37 26 28 32 32
22 20 19 19 19 18 18 18 23 29 30 27 32 37 36 44 40 39 17 14 15 15 28 16 15 23 25 12 16 22 28 36
21 20 19 19 18 13 7 5 9 15 19 27 35 26 38 23 40 29 31 41 22 19 14 16 18 18 20 22 23 24 26 27
21 20 19 15 8 9 9 6 5 5 8 14 19 24 22 24 26 30 30 14 9 8 12 16 20 20 22 23 25 26 26 28
20 20 18 14 12 11 9 9 10 12 15 19 21 16 16 19 17 12 11 10 11 14 16 20 22 23 24 26 26 26 26 28
22 19 15 14 13 13 11 10 12 13 14 15 15 15 10 7 7 9 9 11 13 16 18 20 22 24 25 26 27 27 29 29
22 17 13 15 17 16 15 16 16 17 18 15 11 8 4 4 6 7 9 11 12 15 17 19 19 19 19 20 20 21 21 21
19 17 16 19 22 21 19 21 19 18 16 14 11 10 7 6 7 9 8 10 11 12 13 13 13 14 14 15 17 17 19 21
18 17 23 22 25 23 21 21 19 17 17 17 13 10 9 9 9 10 11 13 13 14 14 14 15 16 17 17 17 18 18 18
25 24 26 28 29 26 21 20 20 20 20 18 13 12 13 12 12 13 14 14 16 17 15 15 15 14 13 15 16 19 21 25
22 25 30 27 33 25 25 23 25 26 23 22 20 17 13 12 14 16 15 15 17 17 15 14 15 16 17 16 17 20 21 22
24 23 23 26 32 36 31 30 29 29 26 25 22 17 14 14 13 15 16 17 17 18 18 18 17 16 16 17 18 19 21 22
Wind_Direction
265 249 238 232 231 232 234 227 229 232 234 239 243 243 245 250 245 244 245 245 246 245 244 244 243 243 243 244 246 246 247 250
259 245 229 226 225 231 233 230 232 234 236 243 244 245 251 254 250 249 249 249 249 249 250 247 245 243 243 244 245 246 247 249
249 247 232 230 227 228 233 235 235 236 239 244 245 246 249 252 254 255 254 253 252 252 256 253 248 246 245 246 247 247 247 248
243 239 237 230 231 232 236 237 239 236 237 241 243 245 250 246 251 257 257 254 252 254 251 251 249 248 245 244 245 246 246 246
243 239 234 236 232 234 232 234 239 236 235 237 243 248 252 248 248 253 249 251 251 251 251 251 247 242 243 244 243 241 243 244
247 256 251 246 243 245 247 246 245 246 239 235 236 242 245 244 247 250 250 246 244 247 248 249 262 249 237 234 234 237 241 242
246 252 253 253 248 247 249 249 248 247 243 237 236 242 246 249 251 253 255 254 254 255 251 250 248 251 244 229 225 229 236 240
254 264 263 257 255 251 252 252 251 249 251 245 237 244 242 244 250 252 244 239 240 256 261 253 252 242 235 232 226 227 233 236
266 268 265 266 269 270 260 249 251 246 237 246 238 244 247 244 249 242 257 300 291 275 304 326 320 291 279 295 281 274 262 262
263 265 265 270 276 273 267 267 248 250 245 246 252 251 241 244 253 266 289 283 317 308 291 277 265 254 259 264 259 256 257 258
251 259 266 265 242 253 278 293 285 274 252 253 254 254 254 276 300 295 297 294 249 224 221 241 255 259 266 269 263 260 258 261
249 249 243 249 271 277 270 254 247 254 254 255 265 274 271 277 284 284 271 259 234 228 233 243 259 266 273 275 276 279 280 279
234 230 237 254 248 248 240 241 258 261 261 260 260 259 243 229 241 235 229 240 247 250 259 266 272 276 276 273 274 276 280 281
224 232 245 244 239 236 246 258 268 278 277 265 252 244 256 261 243 241 237 243 256 263 275 279 279 277 277 281 286 291 291 287
231 241 245 251 242 243 257 268 276 271 260 254 247 252 251 236 223 224 234 244 255 262 268 272 276 282 286 291 296 296 298 297
238 256 247 244 241 248 261 266 269 252 241 227 222 227 229 227 217 215 223 233 238 243 249 259 269 277 284 287 294 297 296 291
242 253 257 252 244 253 264 267 265 245 230 215 218 232 229 230 229 224 223 230 238 245 249 253 257 260 277 282 290 291 297 299
249 254 253 250 239 252 258 261 253 238 228 224 230 232 232 238 231 225 227 235 245 247 239 239 245 252 256 262 274 279 283 288
250 237 240 249 243 245 251 251 237 231 224 225 227 232 237 243 248 240 239 243 241 243 240 243 252 264 278 282 283 283 284 287
Height
3100 3099 3100 3101 3102 3104 3105 3109 3113 3117 3120 3122 3122 3124 3125 3127 3129 3130 3132 3134 3135 3136 3136 3137 3138 3139 3140 3140 3141 3141 3141 3142
3093 3094 3095 3095 3097 3098 3100 3103 3106 3110 3113 3114 3117 3119 3120 3122 3122 3124 3126 3127 3128 3128 3130 3131 3131 3131 3132 3134 3134 3135 3134 3135
3088 3089 3089 3090 3092 3094 3094 3097 3099 3103 3107 3108 3108 3111 3113 3114 3115 3117 3118 3120 3120 3121 3122 3123 3123 3124 3125 3126 3127 3127 3127 3128
3080 3082 3083 3084 3087 3088 3089 3091 3094 3096 3099 3098 3100 3102 3103 3105 3109 3111 3111 3111 3111 3111 3111 3111 3112 3113 3113 3115 3116 3118 3119 3120
3073 3076 3077 3079 3079 3080 3082 3085 3087 3087 3089 3091 3093 3095 3098 3099 3100 3100 3101 3100 3100 3099 3098 3096 3099 3099 3101 3103 3105 3106 3109 3110
3068 3069 3071 3073 3074 3075 3075 3077 3079 3080 3081 3083 3084 3086 3086 3089 3089 3091 3091 3090 3088 3087 3087 3088 3088 3086 3086 3087 3091 3093 3097 3101
3062 3063 3064 3065 3066 3066 3067 3068 3069 3070 3071 3073 3076 3078 3080 3082 3082 3080 3079 3076 3074 3076 3076 3074 3073 3073 3076 3074 3075 3078 3087 3093
3059 3058 3058 3058 3058 3058 3058 3058 3059 3060 3062 3063 3066 3067 3070 3071 3073 3072 3067 3066 3061 3064 3063 3060 3061 3061 3063 3063 3067 3070 3077 3082
3054 3054 3053 3051 3052 3052 3051 3051 3050 3051 3053 3055 3056 3061 3062 3063 3062 3059 3058 3046 3060 3057 3062 3063 3061 3062 3061 3061 3065 3069 3071 3073
3049 3050 3049 3047 3048 3048 3047 3046 3046 3046 3047 3049 3051 3050 3053 3054 3054 3052 3054 3051 3046 3051 3054 3056 3055 3053 3055 3058 3062 3062 3063 3064
3044 3045 3045 3044 3044 3044 3043 3043 3043 3043 3044 3044 3046 3046 3046 3048 3049 3050 3051 3042 3046 3043 3046 3050 3053 3051 3054 3055 3056 3057 3056 3055
3039 3039 3039 3039 3040 3040 3039 3038 3039 3039 3040 3041 3042 3041 3041 3042 3043 3042 3042 3044 3045 3044 3045 3048 3050 3049 3049 3051 3049 3050 3051 3050
3034 3033 3033 3034 3034 3034 3035 3035 3035 3036 3035 3035 3035 3035 3036 3036 3036 3037 3034 3036 3039 3041 3043 3044 3044 3044 3043 3045 3045 3045 3046 3044
3028 3029 3029 3029 3029 3029 3029 3030 3030 3031 3031 3030 3030 3031 3031 3031 3032 3032 3031 3033 3034 3037 3037 3038 3041 3042 3042 3043 3042 3040 3041 3040
3024 3024 3023 3024 3024 3024 3025 3024 3025 3027 3026 3027 3026 3026 3027 3027 3029 3030 3030 3030 3030 3030 3032 3035 3037 3038 3039 3038 3037 3035 3035 3034
3015 3016 3017 3017 3018 3019 3021 3019 3019 3020 3021 3022 3023 3023 3025 3025 3026 3027 3029 3029 3029 3029 3028 3031 3033 3034 3035 3034 3033 3031 3030 3028
3006 3008 3008 3008 3010 3012 3012 3012 3014 3015 3017 3017 3018 3020 3021 3022 3022 3023 3024 3024 3028 3027 3024 3025 3028 3029 3029 3029 3028 3027 3025 3022
2993 2997 2999 2998 3002 3005 3005 3007 3008 3008 3010 3011 3014 3015 3015 3017 3018 3018 3017 3019 3021 3022 3020 3021 3023 3023 3024 3023 3023 3022 3021 3018
2985 2986 2987 2990 2993 2995 2997 3000 3001 3002 3003 3006 3007 3008 3010 3009 3011 3013 3011 3013 3014 3017 3016 3016 3018 3017 3018 3017 3017 3016 3015 3013